Regional Weather Roundup
Issued by NWS

Home | Current Version | Previous Version | Text Only | Print | Product List | Glossary On
Versions: 1 2 3 4 5 6 7 8 9 10 11 12 13 14 15 16 17 18 19 20 21 22 23 24 25 26 27
000
ASUS44 KBMX 301210
RWRAL

ALABAMA REGIONAL WEATHER ROUNDUP
NATIONAL WEATHER SERVICE BIRMINGHAM AL
700 AM CDT MON MAY 30 2016

NOTE: "FAIR" INDICATES FEW OR NO CLOUDS BELOW 12,000 FEET
WITH NO SIGNIFICANT WEATHER AND/OR OBSTRUCTIONS TO VISIBILITY.

THE REMARK "TC" DENOTES TEMPERATURE IN DEGREES CELSIUS.

ALZ001>011-014-016>018-020-301300-
NORTH ALABAMA

CITY           SKY/WX    TMP DP  RH WIND       PRES   REMARKS
MUSCLE SHOALS  CLOUDY    70  65  84 CALM      30.06R
6HR MIN TEMP:  66; 6HR MAX TEMP:  71;

HUNTSVILLE     PTSUNNY   69  64  84 CALM      30.04R
6HR MIN TEMP:  64; 6HR MAX TEMP:  70;

DECATUR        MOSUNNY   69  65  86 CALM      30.05R
6HR MIN TEMP:  63; 6HR MAX TEMP:  69;

HALEYVILLE     FAIR      67  65  93 CALM      30.09R
6HR MIN TEMP:  62; 6HR MAX TEMP:  67;

GADSDEN        SUNNY     68  65  90 CALM      30.04R
6HR MIN TEMP:  63; 6HR MAX TEMP:  68;

$$

ALZ012-013-022-023-030>036-040>044-301300-
WEST CENTRAL ALABAMA

CITY           SKY/WX    TMP DP  RH WIND       PRES   REMARKS
TUSCALOOSA     SUNNY     69  67  93 CALM      30.04R
6HR MIN TEMP:  65; 6HR MAX TEMP:  70;

$$

ALZ015-024>027-033>036-040>044-301300-
CENTRAL ALABAMA

CITY           SKY/WX    TMP DP  RH WIND       PRES   REMARKS
BIRMINGHAM     MOSUNNY   71  66  84 CALM      30.07R
6HR MIN TEMP:  66; 6HR MAX TEMP:  71;

MONTGOMERY     SUNNY     71  67  87 CALM      30.02S
6HR MIN TEMP:  68; 6HR MAX TEMP:  73;

SHELBY CO ARPT SUNNY     70  67  90 CALM      30.03S
6HR MIN TEMP:  66; 6HR MAX TEMP:  70;

MAXWELL AFB    SUNNY     70  69  98 CALM      30.01R
6HR MIN TEMP:  67; 6HR MAX TEMP:  71;

GREENVILLE     FAIR      69  65  86 CALM      30.02R
6HR MIN TEMP:  67; 6HR MAX TEMP:  71;

$$

ALZ019-021-028-029-037-038-045>048-301300-
EAST CENTRAL ALABAMA

CITY           SKY/WX    TMP DP  RH WIND       PRES   REMARKS
ANNISTON       CLOUDY    67  64  90 CALM      30.04R
6HR MIN TEMP:  64; 6HR MAX TEMP:  69;

ALEXANDER CITY SUNNY     67  67 100 CALM      30.03F
6HR MIN TEMP:  65; 6HR MAX TEMP:  70;

AUBURN         SUNNY    N/A N/A N/A N5        30.05R
$$

ALZ051>064-301300-
SOUTHWEST ALABAMA

CITY           SKY/WX    TMP DP  RH WIND       PRES   REMARKS
MOBILE         MOSUNNY   72  71  97 NW5       30.03R
6HR MIN TEMP:  68; 6HR MAX TEMP:  73;

BROOKLEY FIELD SUNNY     74  71  91 CALM      30.04R
6HR MIN TEMP:  71; 6HR MAX TEMP:  75; 6HR PCP: TRACE;

EVERGREEN      SUNNY     69  66  90 CALM      30.04R
6HR MIN TEMP:  66; 6HR MAX TEMP:  70;

$$

ALZ049-050-065>069-301300-
SOUTHEAST ALABAMA

CITY           SKY/WX    TMP DP  RH WIND       PRES   REMARKS
DOTHAN         SUNNY     74  67  78 NW5       30.06R
6HR MIN TEMP:  71; 6HR MAX TEMP:  76;

OZARK          MOSUNNY   74  68  82 N3        30.02R
6HR MIN TEMP:  68; 6HR MAX TEMP:  74; 6HR PCP: TRACE;

TROY           SUNNY     70  67  90 CALM      30.04R
6HR MIN TEMP:  66; 6HR MAX TEMP:  72;

EUFAULA        FAIR      73  67  81 CALM      30.01R
6HR MIN TEMP:  64; 6HR MAX TEMP:  73;

$$




USA.gov is the U.S. government's official web portal to all federal, state and local government web resources and services.